Location: Aragnouet
(42.7874°N, 0.2165°E)
Time: 19:42:45
(UTC+00:00)

USA 234 - Pass Details

Date: 09 April 2020
Orbit: 1102 x 1106 km, 123.0° (Epoch: 14 May)

Event Time Altitude Azimuth Distance (km) Brightness Sun altitude
Rises 19:53:30 0° 56° (NE) 3,924 5.9 -14.5°
Reaches altitude 10° 19:56:20 10° 66° (ENE) 2,964 5.2 -14.9°
Maximum altitude 20:02:00 31° 126° (SE) 1,833 3.9 -15.8°
Drops below altitude 10° 20:07:38 10° 187° (S) 2,953 5.3 -16.8°
Sets 20:10:27 0° 197° (SSW) 3,907 6.0 -17.2°
